sat.trackr.live / text

‹ back to catalog

KUIPER-00092

NORAD 64837 · 2025-151X

PAYLOAD ACTIVE UNKNOWN

§ Identity

Operator
Country
US
Launch date
2025-07-16
Launch site
AFETR
Launch vehicle
Mass (kg)
RCS (m²)

External: N2YO · Heavens-Above · Gunter

§ Orbital elements

Epoch: 2026-05-25T04:20:27.408192Z

Period
97.30 min
Inclination
51.9014°
Eccentricity
0.0000599
Mean motion
14.79941617 rev/d
Perigee alt
629.1 km
Apogee alt
629.9 km
Semi-major
7,007.6 km
B*
4.8609e-4
RAAN
312.3564°
Arg perigee
109.5988°
Mean anomaly
250.5040°
Rev number
4,798

§ Raw data

KUIPER-000921 64837U 25151X   26145.18087278  .00003487  00000+0  48609-3 0  99922 64837  51.9014 312.3564 0000599 109.5988 250.5040 14.79941617 47980

JSON: /api/v1/satellites/64837 · /tle

For live sub-satellite position, see the globe view (requires WebGL).

§ Visibility from observer

Set your observer location to see the next 7 days of passes ≥ 10°. The values pass through the URL so the page stays shareable.

No JS? Fill the form by hand. The geolocation button needs JavaScript.